SAUDICOMSAT 6

Last updated on Tue Sep 22 2026 00:03:29 GMT+0000 (Coordinated Universal Time)

1 31121U 07012E 26264.14077482 .00000397 00000+0 85367-4 0 9992 2 31121 98.4226 233.5025 0072338 29.0026 331.5165 14.62636577 34214
UTC large
Height (km)
Speed (km/s)
/
Latitude / Longitude
Inclination (degrees)
Orbital Period (minutes)
Azimuth
Elevation
Range (km)
Doppler Factor

Next 0 passes for location: London (51.5072 / 0.1276)

No passes found over London.
SAUDICOMSAT 6